Time,TemperatureF,DewpointF,PressureIn,WindDirection,WindDirectionDegrees,WindSpeedMPH,WindSpeedGustMPH,Humidity,HourlyPrecipIn,Conditions,Clouds,dailyrainin,SolarRadiationWatts/m^2,SoftwareType,DateUTC
2013-08-12 00:01:00,62.0,49.0,-100.00,West,267,4.0,8.0,62,0.00,,,1.74,0.000000,,2013-08-12 07:01:00,
2013-08-12 00:12:00,62.0,49.0,-100.00,West,267,4.0,8.0,62,0.00,,,1.74,0.000000,,2013-08-12 07:12:00,
2013-08-12 00:22:00,62.0,49.0,-100.00,West,267,4.0,8.0,62,0.00,,,1.74,0.000000,,2013-08-12 07:22:00,
2013-08-12 00:33:00,62.0,49.0,-100.00,West,267,4.0,8.0,62,0.00,,,1.74,0.000000,,2013-08-12 07:33:00,
2013-08-12 01:02:00,61.0,34.0,-100.00,WSW,258,3.0,6.0,36,0.00,,,1.74,0.000000,,2013-08-12 08:02:00,
2013-08-12 01:11:00,61.0,34.0,-100.00,WSW,258,3.0,6.0,36,0.00,,,1.74,0.000000,,2013-08-12 08:11:00,
2013-08-12 01:22:00,61.0,34.0,-100.00,WSW,258,3.0,6.0,36,0.00,,,1.74,0.000000,,2013-08-12 08:22:00,
2013-08-12 01:33:00,61.0,34.0,-100.00,WSW,258,3.0,6.0,36,0.00,,,1.74,0.000000,,2013-08-12 08:33:00,
2013-08-12 02:02:00,62.0,35.0,-100.00,WNW,285,3.0,6.0,36,0.00,,,1.74,0.000000,,2013-08-12 09:02:00,
2013-08-12 02:11:00,62.0,35.0,-100.00,WNW,285,3.0,6.0,36,0.00,,,1.74,0.000000,,2013-08-12 09:11:00,
2013-08-12 02:22:00,62.0,35.0,-100.00,WNW,285,3.0,6.0,36,0.00,,,1.74,0.000000,,2013-08-12 09:22:00,
2013-08-12 02:32:00,62.0,35.0,-100.00,WNW,285,3.0,6.0,36,0.00,,,1.74,0.000000,,2013-08-12 09:32:00,
2013-08-12 03:01:00,62.0,35.0,-100.00,SSW,205,2.0,4.0,36,0.00,,,1.74,0.000000,,2013-08-12 10:01:00,
2013-08-12 03:11:00,62.0,35.0,-100.00,SSW,205,2.0,4.0,36,0.00,,,1.74,0.000000,,2013-08-12 10:11:00,
2013-08-12 03:21:00,62.0,35.0,-100.00,SSW,205,2.0,4.0,36,0.00,,,1.74,0.000000,,2013-08-12 10:21:00,
2013-08-12 03:32:00,62.0,35.0,-100.00,SSW,205,2.0,4.0,36,0.00,,,1.74,0.000000,,2013-08-12 10:32:00,
2013-08-12 04:02:00,62.0,48.0,-100.00,East,90,2.0,6.0,60,0.00,,,-99.99,0.000000,,2013-08-12 11:02:00,
2013-08-12 04:12:00,62.0,48.0,-100.00,East,90,2.0,6.0,60,0.00,,,-99.99,0.000000,,2013-08-12 11:12:00,
2013-08-12 04:22:00,62.0,48.0,-100.00,East,90,2.0,6.0,60,0.00,,,-99.99,0.000000,,2013-08-12 11:22:00,
2013-08-12 04:32:00,62.0,48.0,-100.00,East,90,2.0,6.0,60,0.00,,,-99.99,0.000000,,2013-08-12 11:32:00,
2013-08-12 05:02:00,62.0,45.0,-100.00,ESE,103,4.0,6.0,53,0.00,,,1.74,0.000000,,2013-08-12 12:02:00,
2013-08-12 05:11:00,62.0,45.0,-100.00,ESE,103,4.0,6.0,53,0.00,,,1.74,0.000000,,2013-08-12 12:11:00,
2013-08-12 05:22:00,62.0,45.0,-100.00,ESE,103,4.0,6.0,53,0.00,,,1.74,0.000000,,2013-08-12 12:22:00,
2013-08-12 05:32:00,62.0,45.0,-100.00,ESE,103,4.0,6.0,53,0.00,,,1.74,0.000000,,2013-08-12 12:32:00,
2013-08-12 06:01:00,62.0,47.0,-100.00,East,95,3.0,6.0,58,0.00,,,1.74,0.000000,,2013-08-12 13:01:00,
2013-08-12 06:11:00,62.0,47.0,-100.00,East,95,3.0,6.0,58,0.00,,,1.74,0.000000,,2013-08-12 13:11:00,
2013-08-12 06:22:00,62.0,47.0,-100.00,East,95,3.0,6.0,58,0.00,,,1.74,0.000000,,2013-08-12 13:22:00,
2013-08-12 06:32:00,62.0,47.0,-100.00,East,95,3.0,6.0,58,0.00,,,1.74,0.000000,,2013-08-12 13:32:00,
2013-08-12 07:11:00,66.0,49.0,-100.00,ENE,58,3.0,5.0,55,0.00,,,1.74,48.000000,,2013-08-12 14:11:00,
2013-08-12 07:22:00,66.0,49.0,-100.00,ENE,58,3.0,5.0,55,0.00,,,1.74,48.000000,,2013-08-12 14:22:00,
2013-08-12 07:32:00,66.0,49.0,-100.00,ENE,58,3.0,5.0,55,0.00,,,1.74,48.000000,,2013-08-12 14:32:00,
2013-08-12 08:02:00,72.0,55.0,-100.00,East,79,3.0,4.0,56,0.00,,,1.74,278.000000,,2013-08-12 15:02:00,
2013-08-12 08:11:00,72.0,55.0,-100.00,East,79,3.0,4.0,56,0.00,,,1.74,278.000000,,2013-08-12 15:11:00,
2013-08-12 08:22:00,72.0,55.0,-100.00,East,79,3.0,4.0,56,0.00,,,1.74,278.000000,,2013-08-12 15:22:00,
2013-08-12 08:33:00,72.0,55.0,-100.00,East,79,3.0,4.0,56,0.00,,,1.74,278.000000,,2013-08-12 15:33:00,
2013-08-12 09:01:00,74.0,56.0,-100.00,SSE,152,2.0,6.0,54,0.00,,,1.74,521.000000,,2013-08-12 16:01:00,
2013-08-12 09:11:00,74.0,56.0,-100.00,SSE,152,2.0,6.0,54,0.00,,,1.74,521.000000,,2013-08-12 16:11:00,
2013-08-12 09:22:00,74.0,56.0,-100.00,SSE,152,2.0,6.0,54,0.00,,,1.74,521.000000,,2013-08-12 16:22:00,
2013-08-12 09:32:00,74.0,56.0,-100.00,SSE,152,2.0,6.0,54,0.00,,,1.74,521.000000,,2013-08-12 16:32:00,
2013-08-12 10:01:00,75.0,55.0,-100.00,SSE,147,5.0,10.0,49,0.00,,,-99.99,816.000000,,2013-08-12 17:01:00,
2013-08-12 10:11:00,75.0,55.0,-100.00,SSE,147,5.0,10.0,49,0.00,,,-99.99,816.000000,,2013-08-12 17:11:00,
2013-08-12 10:22:00,75.0,55.0,-100.00,SSE,147,5.0,10.0,49,0.00,,,-99.99,816.000000,,2013-08-12 17:22:00,
2013-08-12 10:32:00,75.0,55.0,-100.00,SSE,147,5.0,10.0,49,0.00,,,-99.99,816.000000,,2013-08-12 17:32:00,
2013-08-12 11:01:00,76.0,55.0,-100.00,South,170,5.0,11.0,49,0.00,,,1.74,955.000000,,2013-08-12 18:01:00,
2013-08-12 11:11:00,76.0,55.0,-100.00,South,170,5.0,11.0,49,0.00,,,1.74,955.000000,,2013-08-12 18:11:00,
2013-08-12 11:22:00,76.0,55.0,-100.00,South,170,5.0,11.0,49,0.00,,,1.74,955.000000,,2013-08-12 18:22:00,
2013-08-12 11:32:00,76.0,55.0,-100.00,South,170,5.0,11.0,49,0.00,,,1.74,955.000000,,2013-08-12 18:32:00,
2013-08-12 12:11:00,78.0,55.0,-100.00,South,180,5.0,13.0,45,0.00,,,1.74,1073.000000,,2013-08-12 19:11:00,
2013-08-12 12:21:00,78.0,55.0,-100.00,South,180,5.0,13.0,45,0.00,,,1.74,1073.000000,,2013-08-12 19:21:00,
2013-08-12 12:32:00,78.0,55.0,-100.00,South,180,5.0,13.0,45,0.00,,,1.74,1073.000000,,2013-08-12 19:32:00,
2013-08-12 13:11:00,80.0,52.0,-100.00,WSW,238,5.0,11.0,38,0.00,,,1.74,952.000000,,2013-08-12 20:11:00,
2013-08-12 13:21:00,80.0,52.0,-100.00,WSW,238,5.0,11.0,38,0.00,,,1.74,952.000000,,2013-08-12 20:21:00,
2013-08-12 13:32:00,80.0,52.0,-100.00,WSW,238,5.0,11.0,38,0.00,,,1.74,952.000000,,2013-08-12 20:32:00,
2013-08-12 14:01:00,78.0,57.0,-100.00,SSW,192,6.0,11.0,49,0.00,,,1.74,1152.000000,,2013-08-12 21:01:00,
2013-08-12 14:12:00,78.0,57.0,-100.00,SSW,192,6.0,11.0,49,0.00,,,1.74,1152.000000,,2013-08-12 21:12:00,
2013-08-12 14:22:00,78.0,57.0,-100.00,SSW,192,6.0,11.0,49,0.00,,,1.74,1152.000000,,2013-08-12 21:22:00,
2013-08-12 14:32:00,78.0,57.0,-100.00,SSW,192,6.0,11.0,49,0.00,,,1.74,1152.000000,,2013-08-12 21:32:00,
2013-08-12 15:02:00,81.0,56.0,-100.00,SW,224,4.0,16.0,42,0.00,,,1.74,1079.000000,,2013-08-12 22:02:00,
2013-08-12 15:11:00,81.0,56.0,-100.00,SW,224,4.0,16.0,42,0.00,,,1.74,1079.000000,,2013-08-12 22:11:00,
2013-08-12 15:21:00,81.0,56.0,-100.00,SW,224,4.0,16.0,42,0.00,,,1.74,1079.000000,,2013-08-12 22:21:00,
2013-08-12 15:32:00,81.0,56.0,-100.00,SW,224,4.0,16.0,42,0.00,,,1.74,1079.000000,,2013-08-12 22:32:00,
2013-08-12 16:02:00,85.0,53.0,-100.00,WSW,250,4.0,11.0,33,0.00,,,1.74,969.000000,,2013-08-12 23:02:00,
2013-08-12 16:11:00,85.0,53.0,-100.00,WSW,250,4.0,11.0,33,0.00,,,1.74,969.000000,,2013-08-12 23:11:00,
2013-08-12 16:21:00,85.0,53.0,-100.00,WSW,250,4.0,11.0,33,0.00,,,1.74,969.000000,,2013-08-12 23:21:00,
2013-08-12 16:34:00,85.0,53.0,-100.00,WSW,250,4.0,11.0,33,0.00,,,1.74,969.000000,,2013-08-12 23:34:00,
2013-08-12 17:12:00,79.0,55.0,-100.00,WSW,250,3.0,10.0,44,0.00,,,0.01,593.000000,,2013-08-13 00:12:00,
2013-08-12 17:23:00,79.0,55.0,-100.00,WSW,250,3.0,10.0,44,0.00,,,0.01,593.000000,,2013-08-13 00:23:00,
2013-08-12 17:34:00,79.0,55.0,-100.00,WSW,250,3.0,10.0,44,0.00,,,0.01,593.000000,,2013-08-13 00:34:00,
2013-08-12 18:13:00,71.0,48.0,-100.00,WNW,302,4.0,7.0,44,0.00,,,0.00,116.000000,,2013-08-13 01:13:00,
2013-08-12 18:23:00,71.0,48.0,-100.00,WNW,302,4.0,7.0,44,0.00,,,0.00,116.000000,,2013-08-13 01:23:00,
2013-08-12 18:32:00,71.0,48.0,-100.00,WNW,302,4.0,7.0,44,0.00,,,0.00,116.000000,,2013-08-13 01:32:00,
2013-08-12 19:11:00,73.0,44.0,-100.00,WSW,256,7.0,14.0,35,0.00,,,0.00,158.000000,,2013-08-13 02:11:00,
2013-08-12 19:21:00,73.0,44.0,-100.00,WSW,256,7.0,14.0,35,0.00,,,0.00,158.000000,,2013-08-13 02:21:00,
2013-08-12 19:32:00,73.0,44.0,-100.00,WSW,256,7.0,14.0,35,0.00,,,0.00,158.000000,,2013-08-13 02:32:00,
2013-08-12 20:11:00,69.0,38.0,-100.00,WNW,286,5.0,11.0,32,0.00,,,0.00,24.000000,,2013-08-13 03:11:00,
2013-08-12 20:22:00,69.0,38.0,-100.00,WNW,286,5.0,11.0,32,0.00,,,0.00,24.000000,,2013-08-13 03:22:00,
2013-08-12 20:33:00,69.0,38.0,-100.00,WNW,286,5.0,11.0,32,0.00,,,0.00,24.000000,,2013-08-13 03:33:00,
2013-08-12 21:12:00,68.0,40.0,-100.00,WNW,299,5.0,11.0,36,0.00,,,0.00,0.000000,,2013-08-13 04:12:00,
2013-08-12 21:23:00,68.0,40.0,-100.00,WNW,299,5.0,11.0,36,0.00,,,0.00,0.000000,,2013-08-13 04:23:00,
2013-08-12 21:33:00,68.0,40.0,-100.00,WNW,299,5.0,11.0,36,0.00,,,0.00,0.000000,,2013-08-13 04:33:00,
2013-08-12 22:12:00,67.0,30.0,-100.00,WNW,294,8.0,14.0,25,0.00,,,0.00,0.000000,,2013-08-13 05:12:00,
2013-08-12 22:21:00,67.0,30.0,-100.00,WNW,294,8.0,14.0,25,0.00,,,0.00,0.000000,,2013-08-13 05:21:00,
2013-08-12 22:31:00,67.0,30.0,-100.00,WNW,294,8.0,14.0,25,0.00,,,0.00,0.000000,,2013-08-13 05:31:00,
2013-08-12 23:11:00,66.0,30.0,-100.00,NW,317,6.0,14.0,26,0.00,,,0.00,0.000000,,2013-08-13 06:11:00,
2013-08-12 23:21:00,66.0,30.0,-100.00,NW,317,6.0,14.0,26,0.00,,,0.00,0.000000,,2013-08-13 06:21:00,
2013-08-12 23:32:00,66.0,30.0,-100.00,NW,317,6.0,14.0,26,0.00,,,0.00,0.000000,,2013-08-13 06:32:00,